This is the latest recevied weather packets stored in our database for station/object IA5FYI-13. If no packets are shown the sender has not sent any weather packets the latest 1 day(s).
| Time | Temp. | Humidity | Pressure | Rain* | Wind** | Luminosity | Snow |
|---|---|---|---|---|---|---|---|
| 1778024413 | 17.78° C | 90% | 1009.5 hPa | 21.34 mm | 5.36 m/s, 154° | - | - |
| 1778024109 | 17.78° C | 90% | 1009.5 hPa | 20.57 mm | 9.83 m/s, 184° | - | - |
| 1778023823 | 17.78° C | 90% | 1009.5 hPa | 17.78 mm | 8.49 m/s, 156° | - | - |
| 1778023509 | 17.78° C | 90% | 1009.5 hPa | 16.26 mm | 4.02 m/s, 163° | - | - |
| 1778023213 | 17.22° C | 90% | 1009.5 hPa | 12.45 mm | 7.6 m/s, 148° | - | - |
| 1778022912 | 17.78° C | 90% | 1009.5 hPa | 11.94 mm | 6.26 m/s, 148° | - | - |
| 1778022613 | 17.22° C | 90% | 1009.5 hPa | 8.38 mm | 7.15 m/s, 140° | - | - |
| 1778022035 | 17.22° C | 90% | 1009.8 hPa | 22.86 mm | 8.49 m/s, 156° | - | - |
| 1778021709 | 17.78° C | 90% | 1009.8 hPa | 22.86 mm | 4.92 m/s, 195° | - | - |
| 1778021412 | 17.22° C | 90% | 1009.5 hPa | 22.35 mm | 8.94 m/s, 123° | - | - |
| 1778021112 | 17.78° C | 91% | 1009.5 hPa | 21.08 mm | 7.6 m/s, 162° | - | - |
| 1778020813 | 17.78° C | 91% | 1009.8 hPa | 14.73 mm | 7.15 m/s, 164° | - | - |
| 1778020509 | 17.22° C | 91% | 1009.8 hPa | 7.11 mm | 8.05 m/s, 160° | - | - |
| 1778020222 | 17.78° C | 91% | 1010.2 hPa | 4.06 mm | 6.26 m/s, 143° | - | - |
| 1778019909 | 17.78° C | 91% | 1010.2 hPa | 2.54 mm | 7.15 m/s, 139° | - | - |
| 1778019613 | 17.78° C | 91% | 1010.2 hPa | 2.03 mm | 8.94 m/s, 136° | - | - |
| 1778019313 | 17.78° C | 91% | 1010.2 hPa | 2.03 mm | 5.81 m/s, 58° | - | - |
| 1778019013 | 17.78° C | 92% | 1010.2 hPa | 0.76 mm | 8.49 m/s, 214° | - | - |
| 1778018709 | 17.78° C | 92% | 1010.2 hPa | 0.51 mm | 5.81 m/s, 130° | - | - |
| 1778018437 | 17.78° C | 92% | 1010.2 hPa | 5.59 mm | 7.15 m/s, 111° | - | - |
| 1778018109 | 17.78° C | 92% | 1010.2 hPa | 4.57 mm | 7.6 m/s, 167° | - | - |
| 1778017813 | 17.78° C | 92% | 1010.2 hPa | 4.57 mm | 6.26 m/s, 139° | - | - |
| 1778017513 | 17.78° C | 93% | 1010.8 hPa | 3.05 mm | 5.36 m/s, 314° | - | - |
| 1778017212 | 17.78° C | 93% | 1010.8 hPa | 2.54 mm | 6.71 m/s, 154° | - | - |
| 1778016909 | 17.78° C | 93% | 1010.5 hPa | 2.54 mm | 5.81 m/s, 142° | - | - |
* Rain latest hour (hover to see other rain measurements)
** Current wind speed in m/s (hover to see current wind gust speed)